User: anonymous   Login
Location: Unspecified
(0.0000°N, 0.0000°E)
Time: 22:37:41
(UTC+00:00)
Language:

OFEQ 10 - Orbit

View from above orbital plane
View from above orbital plane
View from above satellite
View from above satellite

Ground track
Ground track

The orbit is defined by the following mean orbital elements,

1 39650U 14019A   24091.02195825 0.00100000  00000-0  18966-2 0    02
2 39650 140.7411 220.1855 0001000 234.6001 125.3991 15.47379693    07
Epoch (UTC): 31 March 2024 00:31:37
Eccentricity: 0.0001000
inclination: 140.7411°
perigee height: 424 km
apogee height: 425 km
right ascension of ascending node: 220.1855°
argument of perigee: 234.6001°
revolutions per day: 15.47379693
mean anomaly at epoch: 125.3991°

The dashed part of the orbit path shows where the satellite is in the earth's shadow,  

DLR